Location: Jetmore Motorplex
(37.9889°N, 99.8876°W)
Time: 20:38:31
(UTC+00:00)

Cosmos 292 Rocket - Pass Details

Date: 17 February 2020
Orbit: 674 x 694 km, 74.0° (Epoch: 03 April)

Event Time Altitude Azimuth Distance (km) Brightness Sun altitude
Rises 00:54:22 0° 185° (S) 3,045 7.3 -7.6°
Reaches altitude 10° 00:56:43 10° 181° (S) 2,130 6.5 -8.1°
Maximum altitude 01:01:24 55° 104° (ESE) 822 3.9 -9.0°
Drops below altitude 10° 01:06:05 10° 27° (NNE) 2,133 6.0 -9.9°
Sets 01:08:25 0° 24° (NNE) 3,049 6.8 -10.4°
